| time (UTC) | temp C | wind direction | speed KPH | gust KPH | rain 1hr cm | rain 24hr cm | rain mn cm | humidity % | barometer mb |
| 20260502170204 | 15 | 339 | 4.8 | 14.5 | 0.00 | 0.00 | 0.00 | 78 | 1016.5 |
| 20260502163704 | 14 | 3 | 4.8 | 12.9 | 0.00 | 0.00 | 0.00 | 79 | 1016.8 |
| 20260502163204 | 14 | 332 | 3.2 | 8.0 | 0.00 | 0.00 | 0.00 | 80 | 1016.9 |
| 20260502160703 | 13 | 299 | 1.6 | 4.8 | 0.00 | 0.00 | 0.00 | 84 | 1016.9 |
| 20260502160203 | 13 | 298 | 3.2 | 4.8 | 0.00 | 0.00 | 0.00 | 84 | 1016.9 |
| 20260502130704 | 11 | 140 | 0.0 | 0.0 | 0.00 | 0.00 | 0.00 | 89 | 1016.5 |
| 20260502130204 | 11 | 140 | 0.0 | 3.2 | 0.00 | 0.00 | 0.00 | 89 | 1016.5 |
| 20260502123704 | 11 | 139 | 1.6 | 4.8 | 0.00 | 0.00 | 0.00 | 88 | 1016.7 |
| 20260502123204 | 11 | 150 | 3.2 | 4.8 | 0.00 | 0.00 | 0.00 | 88 | 1016.9 |
| 20260502113704 | 12 | 179 | 3.2 | 4.8 | 0.00 | 0.00 | 0.00 | 87 | 1016.8 |
| 20260502113204 | 12 | 330 | 0.0 | 4.8 | 0.00 | 0.00 | 0.00 | 86 | 1016.6 |
| 20260502110704 | 11 | 172 | 3.2 | 9.7 | 0.00 | 0.00 | 0.00 | 86 | 1017.2 |
| 20260502103704 | 12 | 173 | 1.6 | 4.8 | 0.00 | 0.00 | 0.00 | 85 | 1016.8 |
| 20260502103204 | 12 | 170 | 1.6 | 4.8 | 0.00 | 0.00 | 0.00 | 86 | 1016.6 |
| 20260502100704 | 12 | 204 | 0.0 | 3.2 | 0.00 | 0.00 | 0.00 | 84 | 1016.4 |
| 20260502100204 | 12 | 319 | 0.0 | 4.8 | 0.00 | 0.00 | 0.00 | 83 | 1016.3 |
| 20260502090703 | 13 | 225 | 0.0 | 4.8 | 0.00 | 0.00 | 0.00 | 79 | 1016.4 |
| 20260502090204 | 13 | 172 | 3.2 | 4.8 | 0.00 | 0.00 | 0.00 | 78 | 1016.4 |
| 20260502070704 | 16 | 324 | 0.0 | 0.0 | 0.00 | 0.00 | 0.00 | 64 | 1016.2 |
| 20260502063204 | 16 | 324 | 0.0 | 3.2 | 0.00 | 0.00 | 0.00 | 62 | 1016.1 |
| 20260502060204 | 17 | 18 | 1.6 | 8.0 | 0.00 | 0.00 | 0.00 | 62 | 1015.9 |
| 20260502053704 | 17 | 322 | 0.0 | 3.2 | 0.00 | 0.00 | 0.00 | 70 | 1015.6 |
| 20260502053204 | 17 | 29 | 1.6 | 4.8 | 0.00 | 0.00 | 0.00 | 70 | 1015.6 |
| 20260502050704 | 17 | 35 | 0.0 | 1.6 | 0.00 | 0.00 | 0.00 | 69 | 1015.4 |
| 20260502050204 | 17 | 35 | 0.0 | 3.2 | 0.00 | 0.00 | 0.00 | 69 | 1015.4 |
| 20260502043704 | 17 | 301 | 0.0 | 0.0 | 0.00 | 0.00 | 0.00 | 69 | 1015.2 |
| 20260502043204 | 17 | 301 | 0.0 | 4.8 | 0.00 | 0.00 | 0.00 | 69 | 1015.2 |
| 20260502040704 | 17 | 287 | 1.6 | 3.2 | 0.00 | 0.00 | 0.00 | 67 | 1015.1 |
| 20260502040204 | 17 | 0 | 0.0 | 4.8 | 0.00 | 0.00 | 0.00 | 67 | 1015.0 |
| 20260502033704 | 18 | 267 | 1.6 | 9.7 | 0.00 | 0.00 | 0.00 | 63 | 1014.4 |
| 20260502033204 | 18 | 331 | 4.8 | 14.5 | 0.00 | 0.00 | 0.00 | 61 | 1014.4 |
| 20260502030704 | 19 | 19 | 1.6 | 4.8 | 0.00 | 0.00 | 0.00 | 57 | 1014.3 |
| 20260502030204 | 19 | 327 | 4.8 | 11.3 | 0.00 | 0.00 | 0.00 | 56 | 1014.2 |
| 20260502023704 | 20 | 151 | 1.6 | 4.8 | 0.00 | 0.00 | 0.00 | 53 | 1014.0 |
| 20260502020704 | 20 | 290 | 3.2 | 4.8 | 0.00 | 0.00 | 0.00 | 49 | 1013.9 |
| 20260502020205 | 21 | 301 | 3.2 | 16.1 | 0.00 | 0.00 | 0.00 | 49 | 1013.9 |
| 20260502013704 | 21 | 351 | 3.2 | 12.9 | 0.00 | 0.00 | 0.00 | 52 | 1014.0 |
| 20260502013204 | 21 | 339 | 3.2 | 9.7 | 0.00 | 0.00 | 0.00 | 55 | 1014.1 |
| 20260502010204 | 21 | 350 | 1.6 | 12.9 | 0.00 | 0.00 | 0.00 | 47 | 1014.1 |
| 20260502003704 | 22 | 0 | 4.8 | 8.0 | 0.00 | 0.00 | 0.00 | 47 | 1014.1 |
| 20260502003204 | 22 | 324 | 3.2 | 14.5 | 0.00 | 0.00 | 0.00 | 48 | 1014.1 |
| 20260502000705 | 23 | 267 | 1.6 | 8.0 | 0.00 | 0.00 | 0.00 | 47 | 1014.1 |
| 20260502000204 | 22 | 281 | 3.2 | 14.5 | 0.00 | 0.00 | 0.00 | 46 | 1014.0 |
| 20260501233704 | 23 | 293 | 4.8 | 16.1 | 0.00 | 0.00 | 0.00 | 43 | 1014.0 |
| 20260501233203 | 23 | 289 | 3.2 | 14.5 | 0.00 | 0.00 | 0.00 | 42 | 1014.0 |
| 20260501230704 | 25 | 326 | 3.2 | 14.5 | 0.00 | 0.00 | 0.00 | 42 | 1014.2 |
| 20260501230204 | 25 | 21 | 6.4 | 14.5 | 0.00 | 0.00 | 0.00 | 40 | 1014.3 |
| 20260501223704 | 23 | 289 | 3.2 | 14.5 | 0.00 | 0.00 | 0.00 | 43 | 1014.5 |
| 20260501223204 | 23 | 275 | 4.8 | 16.1 | 0.00 | 0.00 | 0.00 | 42 | 1014.6 |
| 20260501220704 | 23 | 267 | 8.0 | 20.9 | 0.00 | 0.00 | 0.00 | 43 | 1014.9 |
| 20260501220204 | 23 | 275 | 9.7 | 19.3 | 0.00 | 0.00 | 0.00 | 43 | 1014.9 |
| 20260501213704 | 23 | 237 | 6.4 | 14.5 | 0.00 | 0.00 | 0.00 | 45 | 1015.0 |
| 20260501213204 | 23 | 278 | 4.8 | 14.5 | 0.00 | 0.00 | 0.00 | 46 | 1015.0 |
| 20260501210704 | 22 | 291 | 8.0 | 19.3 | 0.00 | 0.00 | 0.00 | 46 | 1015.0 |
| 20260501210204 | 23 | 282 | 6.4 | 19.3 | 0.00 | 0.00 | 0.00 | 47 | 1015.0 |
| 20260501203704 | 22 | 334 | 8.0 | 14.5 | 0.00 | 0.00 | 0.00 | 49 | 1015.1 |
| 20260501203203 | 22 | 319 | 4.8 | 19.3 | 0.00 | 0.00 | 0.00 | 49 | 1015.1 |
| 20260501200704 | 22 | 301 | 4.8 | 11.3 | 0.00 | 0.00 | 0.00 | 47 | 1015.2 |
| 20260501200204 | 22 | 317 | 4.8 | 16.1 | 0.00 | 0.00 | 0.00 | 49 | 1015.2 |
| 20260501193704 | 21 | 300 | 6.4 | 16.1 | 0.00 | 0.00 | 0.00 | 52 | 1015.4 |
| 20260501193205 | 21 | 297 | 4.8 | 12.9 | 0.00 | 0.00 | 0.00 | 52 | 1015.4 |
| 20260501190704 | 20 | 316 | 4.8 | 11.3 | 0.00 | 0.00 | 0.00 | 55 | 1015.7 |
| 20260501190204 | 20 | 1 | 3.2 | 12.9 | 0.00 | 0.00 | 0.00 | 54 | 1015.8 |
| 20260501183704 | 20 | 7 | 3.2 | 8.0 | 0.00 | 0.00 | 0.00 | 55 | 1015.8 |
| 20260501183204 | 19 | 2 | 6.4 | 16.1 | 0.00 | 0.00 | 0.00 | 56 | 1015.8 |
| 20260501180704 | 19 | 329 | 6.4 | 16.1 | 0.00 | 0.00 | 0.00 | 57 | 1016.0 |
| 20260501180204 | 18 | 359 | 3.2 | 14.5 | 0.00 | 0.00 | 0.00 | 58 | 1016.1 |